Theta_e
311 308 307 306 305 304 303 302 301 301 300 300 300 301 302 304 305 305 305 305 306 307 308 308 310 311 313 315 317 318 318 320 321 319 317 317 317 316 315 316 315 313 313
309 307 305 305 304 303 303 301 301 301 300 300 299 299 300 302 304 304 305 304 303 303 303 305 307 308 310 311 314 316 317 319 317 317 315 315 315 314 314 313 312 310 310
306 304 305 305 303 303 302 302 302 302 301 300 300 298 299 300 302 302 302 303 302 302 302 302 302 303 306 308 310 313 315 315 315 314 312 311 310 311 310 310 309 308 307
304 305 304 304 304 303 302 302 303 302 301 300 299 299 299 299 300 300 301 302 302 302 302 302 302 302 302 305 307 308 311 311 311 310 310 309 310 309 309 308 308 306 307
303 304 304 304 304 304 303 303 303 303 302 301 301 301 301 301 301 301 301 302 303 303 303 302 303 303 302 302 304 306 307 308 308 309 307 307 307 307 307 307 307 307 306
304 304 304 304 304 304 304 304 304 303 302 303 302 302 302 303 302 302 302 303 303 304 304 303 303 304 304 304 302 304 307 306 306 307 306 306 305 305 304 305 305 305 306
305 306 306 306 305 305 306 306 304 303 303 304 304 303 303 303 304 305 305 304 304 303 304 303 303 304 305 304 303 303 304 304 304 304 304 304 304 304 304 305 305 305 306
305 306 307 305 306 306 305 305 305 304 304 304 304 304 304 304 304 304 304 304 304 304 303 303 303 304 305 305 303 302 301 304 304 304 303 304 305 305 305 306 305 306 307
304 306 306 305 306 306 306 305 304 305 304 303 305 304 305 305 304 304 305 305 305 304 304 304 303 303 304 305 304 305 301 301 302 302 303 304 305 305 307 307 307 307 307
304 305 306 306 306 306 305 305 306 305 304 305 306 305 305 305 305 305 305 304 304 304 304 304 303 303 303 303 304 304 304 305 302 302 302 303 303 303 305 306 307 308 308
304 305 307 306 306 306 306 305 305 306 305 305 305 305 305 305 305 305 304 304 305 304 304 304 304 303 303 303 304 303 303 303 305 303 305 304 304 303 303 304 305 305 306
304 306 306 306 307 306 306 305 305 305 305 305 305 305 305 305 305 305 305 305 305 304 305 304 304 304 303 303 302 302 303 303 303 303 303 302 302 303 303 302 303 304 305
305 305 306 306 306 305 306 305 305 305 305 305 305 305 305 305 304 304 305 306 306 305 304 304 304 303 303 303 303 302 302 302 301 302 301 302 302 302 301 302 304 304 305
305 305 306 306 306 306 307 306 305 305 304 304 304 304 304 305 305 304 304 304 306 305 305 305 304 304 304 304 303 302 302 301 301 301 302 301 302 302 302 303 304 305 305
306 305 305 306 307 307 308 308 306 305 306 305 305 305 305 305 305 305 304 304 303 304 306 306 305 305 305 304 304 304 303 302 302 301 302 302 302 303 304 304 304 304 304
305 305 305 306 306 307 308 308 308 308 306 306 305 306 306 305 304 303 303 303 302 303 304 305 305 304 305 305 305 305 304 304 303 303 303 303 304 305 304 304 304 304 304
305 305 305 305 306 306 308 308 309 309 307 307 307 306 306 305 305 304 303 302 302 302 303 304 304 304 305 305 306 306 305 304 305 305 305 305 305 305 305 304 304 304 304
306 305 306 306 306 307 308 308 308 308 307 307 306 306 305 306 304 303 303 302 302 301 302 302 304 303 303 304 305 305 305 305 304 305 305 305 305 305 305 305 305 305 304
306 305 306 306 306 307 308 308 307 306 306 306 304 304 304 304 303 302 302 301 301 301 301 301 303 303 302 303 304 305 305 306 306 306 305 305 305 305 305 305 305 304 304
306 305 306 306 306 306 307 307 306 307 307 306 306 305 304 303 302 302 301 301 301 301 300 301 301 302 302 302 303 304 304 306 306 306 307 307 307 306 304 304 305 305 305
309 306 306 306 305 305 306 306 306 305 305 304 304 303 303 302 302 302 302 301 301 301 300 300 300 301 302 301 302 303 304 304 305 306 307 306 306 305 304 304 304 305 305
307 307 306 305 305 305 305 305 305 305 304 304 303 302 302 301 302 302 301 301 300 300 300 300 300 300 300 301 301 303 304 305 304 305 306 308 307 305 304 304 304 305 305
307 307 306 305 305 304 304 304 304 304 303 303 303 302 301 301 301 301 300 300 300 300 300 300 300 300 300 300 300 301 303 305 304 305 306 308 307 306 305 305 304 304 304
307 307 306 305 304 304 304 303 303 302 302 302 302 301 301 301 300 300 299 299 299 299 299 299 299 299 300 300 300 300 302 305 305 305 305 306 306 307 306 306 306 306 305
307 306 305 305 305 303 303 302 302 301 301 301 301 301 300 300 300 299 300 300 300 299 299 298 298 298 298 299 299 300 303 305 305 306 305 306 306 307 307 308 307 306 307
306 306 305 305 304 303 303 303 302 301 300 300 300 300 300 300 300 300 299 299 299 298 298 298 297 297 298 299 299 300 302 304 305 306 306 306 306 307 307 307 306 306 307
Wind_Speed
23 29 23 22 23 26 26 26 23 23 24 24 23 19 19 17 17 19 20 20 18 16 13 10 9 9 7 7 7 8 7 6 15 17 18 18 15 15 16 17 15 9 8
25 24 18 20 26 28 27 26 25 26 26 25 22 18 15 15 17 18 21 21 22 22 19 14 10 8 8 8 7 9 9 9 24 28 25 22 19 13 13 14 13 8 2
25 22 22 26 28 26 25 23 25 30 28 28 23 21 14 15 16 18 19 18 21 23 25 23 21 14 10 9 8 4 18 21 25 26 25 20 17 18 13 9 9 9 6
20 25 28 26 26 25 24 25 27 28 29 36 31 30 25 20 18 17 17 17 17 19 18 21 22 23 20 14 10 10 11 18 17 17 15 13 9 10 13 11 15 9 9
23 25 27 26 26 25 25 25 25 26 27 28 29 30 28 27 25 20 19 19 17 16 18 17 18 19 19 18 13 15 13 16 13 16 20 17 15 15 14 13 12 10 8
24 26 23 24 26 28 28 27 24 22 22 25 25 27 24 23 23 23 21 20 19 17 16 16 15 16 15 17 18 11 8 16 16 14 14 13 11 7 7 10 11 15 12
23 22 23 23 24 25 25 27 28 24 19 23 23 24 24 20 21 20 15 17 21 19 17 16 15 14 13 14 15 12 12 11 11 11 15 14 15 16 15 15 12 14 9
18 19 21 21 22 26 29 26 24 24 24 26 25 25 24 24 17 18 18 20 22 23 22 20 18 15 13 13 13 16 14 12 13 14 14 14 13 9 10 11 14 11 6
14 17 21 23 22 24 24 25 22 23 25 26 29 26 27 29 24 17 19 18 19 21 20 19 18 16 13 11 10 14 17 18 15 13 15 13 11 9 8 7 11 12 9
11 16 19 21 22 25 26 24 25 23 18 19 28 23 28 26 27 24 20 19 18 19 17 18 20 18 15 12 11 11 12 14 15 15 13 9 6 3 3 7 8 7 7
11 15 18 20 19 21 20 22 21 23 25 24 25 26 26 29 29 33 25 25 21 20 25 20 18 17 17 14 14 12 12 8 11 9 14 8 3 3 3 4 3 4 4
11 13 16 16 17 19 23 20 21 22 25 27 29 29 29 27 27 26 28 27 24 19 19 23 18 14 16 16 14 11 9 9 7 6 6 7 8 10 9 6 5 2 2
10 10 13 15 15 15 19 20 18 19 18 24 25 27 27 25 24 25 26 19 22 28 18 19 18 18 13 17 14 11 9 9 10 8 8 9 8 7 7 6 8 10 12
9 10 9 11 12 13 18 19 17 21 23 21 21 22 25 26 25 25 26 25 19 23 23 24 20 20 19 18 22 16 14 12 11 11 11 9 7 6 5 6 10 15 16
6 9 6 8 10 13 15 14 13 15 19 18 20 20 22 25 25 23 24 23 21 17 19 20 22 21 20 19 18 16 17 12 10 9 9 8 8 8 8 10 13 15 16
5 6 5 7 8 9 13 12 11 10 16 12 16 18 18 17 17 22 22 21 18 18 15 22 19 20 19 17 18 18 14 17 15 11 10 9 9 9 9 12 12 10 9
9 7 6 6 4 9 12 12 12 11 10 14 18 17 16 16 18 21 22 22 17 16 17 21 21 19 17 16 18 19 15 12 11 13 14 11 9 9 9 9 7 5 7
6 6 6 8 8 9 10 12 11 11 11 10 12 13 13 18 21 22 22 20 19 17 18 20 18 20 17 11 13 14 10 12 12 9 10 11 11 9 7 6 7 6 7
8 6 5 6 7 9 9 11 13 13 13 10 12 15 17 20 23 22 22 19 18 17 16 16 15 18 20 14 8 9 11 10 11 9 7 6 7 7 5 3 5 5 6
6 11 8 7 8 8 10 12 14 13 12 13 12 15 18 19 21 20 20 21 17 15 14 14 14 14 17 17 13 10 10 9 7 6 4 3 3 4 4 2 1 1 3
9 3 5 6 7 8 8 9 10 11 15 16 16 18 19 17 17 19 19 18 16 14 13 13 14 13 15 16 15 11 9 9 5 5 4 3 3 4 4 3 2 3 4
4 4 4 4 6 7 7 8 6 7 10 13 15 16 17 16 14 16 17 15 13 12 11 12 13 13 14 17 15 12 10 8 6 4 4 5 4 7 6 3 4 4 7
5 6 6 7 7 8 10 10 11 11 12 13 14 16 18 13 13 15 17 16 14 12 12 12 13 11 11 14 14 11 9 10 7 6 4 6 5 6 5 6 8 9 11
6 8 6 7 8 11 11 10 12 14 15 15 15 13 13 14 15 16 17 14 14 13 14 13 12 11 12 13 13 9 6 9 8 5 3 4 3 2 3 3 5 5 5
3 3 9 9 10 12 7 9 12 13 13 11 9 9 11 13 14 15 14 16 15 15 17 15 13 9 9 12 10 6 6 7 7 6 4 2 7 2 2 6 5 6 7
2 9 8 9 8 6 7 10 12 12 10 10 9 9 11 12 12 13 13 13 13 13 13 17 15 13 10 11 8 4 5 5 4 4 5 1 6 2 2 1 1 4 5
Wind_Direction
13 7 15 14 21 13 9 10 19 20 18 16 13 15 19 25 31 40 40 37 35 33 30 28 27 35 21 19 22 356 323 235 211 158 140 137 135 119 113 131 132 139 137
9 8 24 20 22 17 24 26 28 25 24 20 17 16 17 24 33 41 42 42 36 33 30 35 40 42 42 47 52 78 87 156 148 138 135 128 120 110 113 114 125 118 105
12 38 33 28 26 25 28 31 26 28 24 22 17 22 22 31 39 38 39 38 42 49 43 47 47 47 50 52 60 87 99 106 115 118 115 115 112 115 115 114 112 110 100
39 32 30 29 27 29 29 23 23 30 34 36 43 42 44 35 39 41 47 47 46 44 40 36 41 43 50 55 61 69 110 109 111 113 117 112 124 137 139 131 119 119 100
41 45 39 35 30 34 30 29 30 35 35 40 40 42 43 46 47 52 56 50 50 49 45 40 39 45 53 57 56 64 84 108 114 126 125 124 117 125 144 142 140 155 116
50 48 38 38 39 37 35 31 29 33 37 39 41 40 41 46 52 58 58 49 43 42 44 41 47 48 57 55 58 65 84 87 108 122 117 114 105 134 140 136 120 138 134
49 42 32 32 35 28 24 26 31 35 37 36 39 37 39 42 35 30 36 42 34 35 36 38 45 47 36 57 61 72 81 93 104 111 116 106 109 106 124 134 132 139 129
47 44 30 34 39 39 31 29 39 42 44 45 44 49 46 42 36 40 47 46 46 45 47 49 50 47 39 76 81 73 78 95 98 97 102 106 109 123 139 145 141 134 137
35 39 42 37 33 30 33 38 45 48 49 57 52 52 43 43 40 37 37 53 48 46 41 43 46 49 50 69 72 74 86 85 99 103 105 106 104 123 120 135 149 175 163
58 55 38 37 40 39 37 42 40 42 49 45 54 56 44 37 35 37 46 49 52 43 39 49 49 50 57 68 73 82 91 79 111 113 114 107 112 101 106 111 120 162 169
56 66 47 38 37 35 32 34 49 47 47 61 57 50 52 47 44 45 47 47 45 46 44 49 52 54 62 68 69 73 76 91 100 124 113 112 70 37 108 130 155 190 187
73 58 48 43 41 38 36 49 57 56 54 54 57 52 49 47 44 44 52 49 42 44 41 49 47 50 54 61 65 74 74 74 96 120 105 87 85 82 68 83 107 121 127
69 52 55 46 44 42 37 45 48 47 50 52 47 43 40 39 42 38 35 31 36 45 52 44 43 51 58 54 52 72 81 80 91 98 97 97 93 96 89 72 77 95 106
64 54 49 40 36 51 27 38 46 47 48 50 47 44 36 32 32 31 30 33 38 37 47 47 51 50 61 61 60 71 75 86 96 97 103 106 107 116 125 93 106 105 108
59 56 59 34 50 27 14 22 29 45 41 46 48 39 33 32 37 29 25 28 30 36 45 45 46 46 51 57 62 66 65 75 82 90 101 102 103 110 107 113 118 110 103
25 37 48 18 35 24 359 9 6 9 39 43 34 27 39 28 30 21 16 20 26 32 48 48 47 38 52 55 44 54 63 63 69 76 86 90 93 110 113 127 130 106 105
31 32 42 13 11 3 18 18 21 35 54 36 36 28 27 15 23 25 19 19 30 39 47 44 46 38 45 41 45 48 60 59 61 55 69 78 78 101 117 126 125 97 96
28 40 40 31 27 19 21 14 9 7 25 29 28 19 8 12 17 11 9 19 30 36 37 35 37 35 34 36 45 46 59 63 63 68 70 64 65 75 94 112 109 117 119
36 40 52 35 15 18 16 353 9 16 23 13 15 19 17 10 11 7 2 16 22 29 31 31 36 31 24 30 40 41 36 39 67 64 58 73 65 58 62 80 127 116 108
24 45 46 30 28 19 3 3 15 20 21 11 2 360 1 358 3 14 13 18 16 22 23 29 27 24 25 23 27 32 43 55 80 69 70 52 1 351 356 26 141 127 122
264 17 38 15 360 0 1 19 10 359 357 352 0 1 7 10 360 0 2 7 13 19 21 24 22 16 12 18 20 26 29 41 29 23 56 95 43 30 46 35 69 118 132
185 257 7 348 342 339 343 352 354 10 2 5 357 354 352 352 354 1 2 11 16 13 14 9 13 10 357 1 10 18 25 21 26 32 26 54 63 55 58 96 65 98 133
149 313 327 328 322 330 325 328 326 327 333 337 342 348 349 8 7 4 0 353 355 354 357 355 354 360 355 354 355 10 19 24 27 44 57 84 74 69 58 59 60 115 116
316 299 346 341 330 316 316 323 326 325 327 331 328 338 350 355 359 355 353 7 17 2 348 338 341 343 335 340 344 358 16 23 24 30 45 104 162 34 77 79 82 94 103
36 324 325 312 334 352 341 331 335 341 333 336 338 343 352 353 355 359 9 4 360 0 1 1 352 341 343 334 344 352 15 15 37 52 54 127 168 302 328 3 304 300 306
350 303 335 306 315 341 323 319 322 334 341 344 343 344 351 2 15 6 7 356 355 2 356 354 2 4 354 357 360 9 9 21 33 51 45 339 202 250 206 64 23 77 32